{"data":{"norad_id":58798,"epoch":"2026-09-20T09:26:08.104704Z","epoch_age_seconds":161742,"freshness":"FRESH","line1":"1 58798U 24012M   26263.39314936 -.00000467  00000+0 -74710-5 0  9995","line2":"2 58798  43.0019 145.6372 0000820 294.2998  65.7768 15.27578781151015","mean_motion":15.27578781,"eccentricity":8.2e-5,"inclination_deg":43.0019,"raan_deg":145.6372,"arg_perigee_deg":294.2998,"mean_anomaly_deg":65.7768,"bstar":-7.471e-6,"rev_number":15101,"period_min":94.266823938032,"perigee_km":482.49012860743,"apogee_km":483.6153637258,"semimajor_km":6861.1897461666,"source":"CELESTRAK","updated_at":"2026-09-21T09:00:33.980775Z"}}